Tracking 32523 objects as of 12-Dec-2025
HD Live streaming from Space Station
objects crossing your sky now

STARLINK-31009

Track STARLINK-31009 now!
10-day predictions
STARLINK-31009 is classified as:


NORAD ID: 58530
Int'l Code: 2023-191Y
Perigee: 565.6 km
Apogee: 566.7 km
Inclination: 43.0 °
Period: 95.8 minutes
Semi major axis: 6937 km
RCS: Unknown
Launch date: December 7, 2023
Source: United States (US)
Launch site: AIR FORCE EASTERN TEST RANGE (AFETR)
Your satellite tracking list
Your tracking list is empty




NASA's NSSDC Master Catalog

Two Line Element Set (TLE):
1 58530U 23191Y   25346.06643281  .00001994  00000-0  16258-3 0  9995
2 58530  43.0018 221.8332 0000811 263.6661  96.4089 15.02546301112287
Source of the keplerian elements: AFSPC